Printer-friendly version

IAU Minor Planet Center

Minor Planet Center

MPEC 2006-A32 : 2006 AL3

The following Minor Planet Electronic Circular may be linked-to from your own Web pages, but must not otherwise be redistributed electronically.


Read MPEC 2006-A31 Read MPEC 2006-A33


M.P.E.C. 2006-A32                                Issued 2006 Jan. 8, 14:08 UT

     The Minor Planet Electronic Circulars contain information on unusual
         minor planets and routine data on comets.  They are published
   on behalf of Commission 20 of the International Astronomical Union by the
          Minor Planet Center, Smithsonian Astrophysical Observatory,
                          Cambridge, MA 02138, U.S.A.

                  Supported in part by the Brinson Foundation
                  Supported in part by the TABASGO Foundation
             Prepared using the Tamkin Foundation Computer Network

                              MPC@CFA.HARVARD.EDU
          URL http://cfa-www.harvard.edu/iau/mpc.html  ISSN 1523-6714

                                   2006 AL3

Observations:
     K06A03L* C2006 01 05.39531 10 45 50.11 +33 19 33.6          19.5 V EA032703
     K06A03L  C2006 01 05.40618 10 45 49.71 +33 19 18.0          19.6 V EA032703
     K06A03L  C2006 01 05.41712 10 45 49.21 +33 19 00.9          19.2 V EA032703
     K06A03L  C2006 01 05.42802 10 45 48.70 +33 18 45.9          19.2 V EA032703
     K06A03L  C2006 01 05.47164 10 45 46.94 +33 17 40.8          18.8 V EA032703
     K06A03L  C2006 01 05.47952 10 45 46.69 +33 17 27.1          19.4 V EA032703
     K06A03L  C2006 01 05.48741 10 45 46.36 +33 17 14.8          19.3 V EA032703
     K06A03L  C2006 01 05.49544 10 45 46.04 +33 17 03.6          19.1 V EA032703
     K06A03L  C2006 01 06.38256 10 45 19.58 +32 54 18.5          19.2 V EA032703
     K06A03L  C2006 01 06.38949 10 45 19.26 +32 54 08.4          19.3 V EA032703
     K06A03L  C2006 01 06.39652 10 45 18.86 +32 53 57.6          19.4 V EA032703
     K06A03L  C2006 01 06.40352 10 45 18.64 +32 53 47.4          19.1 V EA032703
     K06A03L  C2006 01 07.43862 10 44 39.48 +32 26 42.3          19.3 V EA032G96
     K06A03L  C2006 01 07.44630 10 44 39.04 +32 26 30.2          19.4 V EA032G96
     K06A03L  C2006 01 07.45395 10 44 38.65 +32 26 18.1          19.4 V EA032G96
     K06A03L  C2006 01 08.47427 10 43 53.79 +31 58 57.4          19.1 V EA032G96
     K06A03L  C2006 01 08.47875 10 43 53.50 +31 58 50.1          19.3 V EA032G96
     K06A03L  C2006 01 08.48321 10 43 53.22 +31 58 42.7          19.4 V EA032G96
     K06A03L  C2006 01 08.48776 10 43 52.93 +31 58 35.3          19.4 V EA032G96

Observer details:
703 Catalina Sky Survey.  Observer R. Hill.  Measurers E. C. Beshore,
    E. J. Christensen, G. J. Garradd, A. D. Grauer, R. E. Hill, R. A. Kowalski,
    S. M. Larson, R. H. McNaught.  0.68-m Schmidt + CCD.
G96 Mt. Lemmon Survey.  Observer E. J. Christensen.  Measurers E. C. Beshore,
    E. J. Christensen, G. J. Garradd, A. D. Grauer, R. E. Hill, R. A. Kowalski,
    S. M. Larson, R. H. McNaught.  1.5-m reflector + CCD.

Orbital elements:
2006 AL3                                                 Earth MOID = 0.2317 AU
Epoch 2006 Jan. 5.0 TT = JDT 2453740.5                  MPC
M   8.24944              (2000.0)            P               Q
n   0.61469083     Peri.  143.47987     -0.22870673     -0.96162749
a   1.3699295      Node   319.11888     +0.82936062     -0.11095424
e   0.1253579      Incl.   13.38809     +0.50975895     -0.25092175
P   1.60           H   20.0           G   0.15
From 19 observations 2006 Jan. 5-8.

Ephemeris:
2006 AL3                 a,e,i = 1.37, 0.13, 13                  q = 1.1982
Date    TT    R. A. (2000) Decl.     Delta      r     Elong.  Phase     V
2006 01 05    10 46.00   +33 29.6    0.302    1.201   130.1    38.8    19.3
2006 01 15    10 36.63   +28 47.9    0.270    1.205   140.8    31.0    18.9
2006 01 25    10 17.49   +22 54.5    0.248    1.212   154.3    20.6    18.4
2006 02 04    09 51.54   +15 56.9    0.239    1.222   169.9     8.1    17.9
2006 02 14    09 25.04   +08 48.7    0.247    1.233   172.6     5.9    17.9
2006 02 24    09 03.95   +02 42.3    0.272    1.246   158.0    17.3    18.6
2006 03 06    08 51.27   -01 48.5    0.311    1.261   145.6    26.4    19.2
2006 03 16    08 47.13   -04 54.8    0.360    1.277   135.7    32.9    19.7
2006 03 26    08 50.01   -07 01.9    0.416    1.294   127.8    37.5    20.2
2006 04 05    08 58.39   -08 32.7    0.476    1.312   121.3    40.7    20.6
2006 04 15    09 10.94   -09 44.6    0.540    1.330   115.8    42.8    20.9
2006 04 25    09 26.58   -10 47.8    0.607    1.349   111.1    44.1    21.3
2006 05 05    09 44.61   -11 49.0    0.677    1.368   106.8    44.9    21.5
2006 05 15    10 04.47   -12 52.5    0.748    1.386   103.0    45.3    21.8
2006 05 25    10 25.73   -13 59.8    0.821    1.404    99.4    45.4    22.0

Gareth V. Williams           (C) Copyright 2006 MPC           M.P.E.C. 2006-A32

Read MPEC 2006-A31 Read MPEC 2006-A33


Our Web policy. Index to the CBAT/MPC/ICQ pages.


Valid HTML 4.01!